Tracking 26257 objects as of 4-Oct-2022
HD Live streaming from Space Station
objects crossing your sky now

GLOBAL-8

Track GLOBAL-8 now!
10-day predictions


NORAD ID: 46089
Int'l Code: 2020-055BQ
Perigee: 399.5 km
Apogee: 417.9 km
Inclination: 53.0 °
Period: 92.6 minutes
Semi major axis: 6779 km
RCS: Unknown
Launch date: August 7, 2020
Source: United States (US)
Launch site: AIR FORCE EASTERN TEST RANGE (AFETR)
aabbcc
Your satellite tracking list
Your tracking list is empty




NASA's NSSDC Master Catalog

Two Line Element Set (TLE):
1 46089U 20055BQ  22276.85229328  .00050584  00000-0  73504-3 0  9991
2 46089  53.0003  74.1744 0013529 298.3119  61.6525 15.55208502127211
Source of the keplerian elements: AFSPC